Tracking 30995 objects as of 5-Jul-2025
HD Live streaming from Space Station
objects crossing your sky now

GSTAR 1

Track GSTAR 1 now!
GSTAR 1 is classified as:


NORAD ID: 15677
Int'l Code: 1985-035A
Perigee: 35,763.0 km
Apogee: 35,823.8 km
Inclination: 14.5 °
Period: 1,436.1 minutes
Semi major axis: 42164 km
RCS: 1.6993 m2 (large)
Launch date: May 8, 1985
Source: United States (US)
Launch site: FRENCH GUIANA (FRGUI)
Your satellite tracking list
Your tracking list is empty




NASA's NSSDC Master Catalog

Two Line Element Set (TLE):
1 15677U 85035A   25186.47248803 -.00000107  00000-0  00000-0 0  9994
2 15677  14.4523 351.3507 0007202 134.3536 222.7955  1.00273063121724
Source of the keplerian elements: AFSPC